Regional Weather Roundup
Issued by NWS Boston, MA

Home | Current Version | Previous Version | Text Only | Print | Product List | Glossary On
Versions: 1 2 3 4 5 6 7 8 9 10 11 12 13 14 15 16 17 18 19 20 21 22 23 24 25 26 27 28
000
ASUS41 KBOX 280210
RWRBOX

REGIONAL WEATHER ROUNDUP
NATIONAL WEATHER SERVICE TAUNTON MA
1000 PM EDT FRI MAY 27 2016

NOTE:  "FAIR" INDICATES FEW OR NO CLOUDS BELOW 12,000 FEET WITH NO
SIGNIFICANT WEATHER AND/OR OBSTRUCTIONS TO VISIBILITY.  THE FOLLOWING
OBSERVATION LOCATIONS DO NOT REPORT PRESENT WEATHER...PROVINCETOWN...
SMITHFIELD...BLOCK ISLAND...KEENE...AND OXFORD.

MAZALL-280300-
EASTERN MASSACHUSETTS

CITY           SKY/WX    TMP DP  RH WIND       PRES   REMARKS
BOSTON         PTCLDY    69  61  75 S7        30.04R
BEVERLY        CLEAR     61  55  81 SE3       30.02R
LAWRENCE       CLOUDY    65  59  81 CALM      30.04R
BEDFORD        CLEAR     75  64  68 SW9       30.02R
BLUE HILL        N/A     70  61  73 S17       30.05R
NORWOOD        PTCLDY    71  62  73 S7        30.04R
MARSHFIELD     PTCLDY    72  63  73 SW9G17    30.04R
PLYMOUTH       PTCLDY    67  60  78 SW13G20   30.08R
TAUNTON        PTCLDY    69  59  70 SW9       30.07R
NEW BEDFORD    CLEAR     67  55  65 SW13G21   30.08R
$$

MAZALL-280300-
CAPE COD AND THE ISLANDS

CITY           SKY/WX    TMP DP  RH WIND       PRES   REMARKS
FALMOUTH         N/A     64  55  72 SW17      30.10R
HYANNIS        PTCLDY    66  55  67 SW23G32   30.07S
CHATHAM        PTCLDY    60  57  89 SW9G18    30.10R
PROVINCETOWN   CLOUDY    61  57  87 S14       30.07R
NANTUCKET      CLEAR     59  56  89 SW9       30.12R
MARTHAS VNYRD  CLEAR     61  56  83 SW9       30.11R
$$

MAZALL-280300-
CENTRAL AND WESTERN MASSACHUSETTS

CITY           SKY/WX    TMP DP  RH WIND       PRES   REMARKS
WORCESTER      CLEAR     72  61  68 SW12      30.07
FITCHBURG      CLEAR     78  62  57 VRB3      30.03R
ORANGE         CLEAR     73  64  73 S3        30.04R
SPRINGFIELD    PTCLDY    74  63  69 S10       30.03R
WESTFIELD      PTCLDY    70  65  84 S6        30.03R
NORTH ADAMS    NOT AVBL
PITTSFIELD     CLOUDY    73  64  73 NE3       30.04R
$$

RIZALL-280300-
RHODE ISLAND

CITY           SKY/WX    TMP DP  RH WIND       PRES   REMARKS
PROVIDENCE     MOCLDY    69  59  70 SW12      30.08R
NEWPORT        CLEAR     63  56  78 S7        30.09R
BLOCK ISLAND   CLEAR     60  55  83 SW10      30.12R
SMITHFIELD       N/A    N/A N/A N/A MISG        N/A
WESTERLY       CLEAR     62  55  77 S5        30.11R
$$

CTZALL-280300-
CONNECTICUT

CITY           SKY/WX    TMP DP  RH WIND       PRES   REMARKS
BRADLEY INTL   PTCLDY    74  62  66 S9        30.03R
HARTFORD       CLEAR     74  62  66 S10       30.05R
BRIDGEPORT     CLEAR     70  60  70 S3        30.06R
DANBURY        CLEAR     67  65  93 CALM      30.06R
GROTON         CLEAR     64  59  83 SW10      30.09R
NEW HAVEN      CLEAR     67  60  78 S5        30.07R
CHESTER        FAIR      66  61  82 S7        30.09R
MERIDEN        CLEAR     71  61  70 S7        30.06R
WILLIMANTIC    CLEAR     71  60  68 S8        30.07R
OXFORD           N/A     66  61  82 S6        30.08S
$$

MEZ002-015-021-024-NHZ003-005-008-011-012-014-VTZ005-008-280300-
NORTHERN NEW ENGLAND

CITY           SKY/WX    TMP DP  RH WIND       PRES   REMARKS
PORTLAND ME    FOG       53  52  96 CALM      30.03S VSB 3/4
BANGOR ME        N/A     55  51  86 S8        30.03F FOG
CONCORD NH     CLOUDY    69  59  70 S6        30.01R
MANCHESTER NH  MOCLDY    70  59  68 SE3       30.01R
NASHUA NH      CLEAR     72  65  78 CALM      30.02R
PORTSMOUTH NH  MOCLDY    54  53  94 SE5       30.01S
JAFFREY NH     CLOUDY    74  64  71 SW3       30.06R
KEENE NH       PTCLDY   N/A N/A N/A SW5       30.03R
BURLINGTON VT  FAIR      80  63  55 SW8       29.95R
MT. WASHINGTON FOG       54  54 100 SW39        N/A  VSB 0
$$

NYZ052-076-280300-
EASTERN NEW YORK

CITY           SKY/WX    TMP DP  RH WIND       PRES   REMARKS
ALBANY         CLOUDY    77  67  71 SE3       30.00R
NEW YORK CITY  MOCLDY    74  66  76 S12       30.04R
$$

ANZALL-280300-
MARINE OBSERVATIONS

STATION/POSITION TIME  TEMP    WIND        PRES    VSBY  WAVE
                       AIR SEA DIR/SP/G                  HT/PER
                 (UTC) (F)     (DEG/KT/KT) (MB)    (MI)  (FT/S)
BOSTON BUOY      0150   63 58  170/  8/ 10 1017.1R         1/10
BUZZARDS BAY     0100   59     210/ 13/ 14 1019.2S
NANTUCKET SOUND  0150   60 57  230/ 16/ 17 1019.0R         1/ 3
MASS BAY-STELLWA 0104   56 57                N/A    1 7/8  1/ 4
ISLE OF SHOALS   0100   53      60/  5/  6 1016.4R
S OF BLOCK IS    0125      56                N/A           4/ 5
$$

......................KEY.........................
  SKY/WX - SKY CONDITION/PRESENT WEATHER
  TMP    - TEMPERATURE IN FAHRENHEIT
  DWPT   - DEWPOINT IN FAHRENHEIT
  RH     - RELATIVE HUMIDITY IN PERCENT
  WIND   - DIRECTION AND SPEED IN MPH
  PRES   - MEAN SEA LEVEL PRESSURE IN INCHES OF HG
  WCI    - WIND CHILL INDEX
  VSB    - VISIBILITY IN MILES
  HX     - HEAT INDEX
  TC     - TEMPERATURE IN CELSIUS
  VRB    - VARIABLE WIND DIRECTION
  N/A    - NOT AVAILABLE




USA.gov is the U.S. government's official web portal to all federal, state and local government web resources and services.